N335TA LGSK-LLHA

Flight info

Callsign N335TA
Flight time 2h 22m
Altitude 29000
Route ETEKA1E ETEKA UW58 ETRUD UN130 MES UL609 ALKIS L609 APLON DCT
Aircraft BE20/L-SBGRY/S

Departure

Time 2026-04-21 05:51
Airport Skiathos Island National Airport (LGSK)

Arrival

Time 2026-04-21 08:14
Airport Uri Michaeli Haifa International Airport (LLHA)
Time Latitude Longitude Altitude Speed Heading
2026-04-21 05:39 39.17669 23.50218 36 ft 0 kts 292°
2026-04-21 05:48 39.17670 23.50218 36 ft 1 kts 291°
2026-04-21 05:49 39.17649 23.50229 35 ft 10 kts 142°
2026-04-21 05:49 39.17552 23.50258 34 ft 21 kts 129°
2026-04-21 05:49 39.17386 23.50223 29 ft 30 kts 199°
2026-04-21 05:49 39.17175 23.50131 17 ft 23 kts 199°
2026-04-21 05:50 39.17086 23.50088 15 ft 4 kts
2026-04-21 05:50 39.17112 23.50101 16 ft 20 kts 20°
2026-04-21 05:50 39.17460 23.50255 31 ft 83 kts 19°
2026-04-21 05:50 39.18176 23.50565 123 ft 126 kts 18°
2026-04-21 05:51 39.19058 23.50924 517 ft 141 kts 18°
2026-04-21 05:51 39.20014 23.51381 927 ft 151 kts 17°
2026-04-21 05:51 39.21056 23.51823 1346 ft 164 kts 16°
2026-04-21 05:51 39.22163 23.52309 1819 ft 171 kts 16°
2026-04-21 05:52 39.23298 23.52818 2319 ft 175 kts 17°
2026-04-21 05:52 39.24455 23.53338 2825 ft 177 kts 17°
2026-04-21 05:52 39.25633 23.53866 3330 ft 180 kts 17°
2026-04-21 05:52 39.26740 23.54599 3821 ft 182 kts 39°
2026-04-21 05:53 39.27528 23.55899 4320 ft 187 kts 64°
2026-04-21 05:53 39.27817 23.57513 4831 ft 190 kts 89°
2026-04-21 05:53 39.27551 23.59184 5334 ft 192 kts 109°
2026-04-21 05:53 39.27105 23.60826 5840 ft 194 kts 109°
2026-04-21 05:54 39.26658 23.62482 6353 ft 197 kts 108°
2026-04-21 05:54 39.26205 23.64160 6836 ft 199 kts 108°
2026-04-21 05:54 39.25743 23.65862 7280 ft 204 kts 109°
2026-04-21 05:54 39.25247 23.67597 7730 ft 208 kts 110°
2026-04-21 05:55 39.24738 23.69363 8185 ft 211 kts 109°
2026-04-21 05:55 39.24228 23.71153 8647 ft 214 kts 109°
2026-04-21 05:55 39.23710 23.72973 9115 ft 217 kts 109°
2026-04-21 05:55 39.23194 23.74784 9583 ft 220 kts 109°
2026-04-21 05:56 39.22663 23.76645 10042 ft 222 kts 109°
2026-04-21 05:56 39.22124 23.78530 10477 ft 225 kts 109°
2026-04-21 05:56 39.21581 23.80429 10917 ft 227 kts 109°
2026-04-21 05:56 39.21033 23.82346 11363 ft 229 kts 109°
2026-04-21 05:57 39.20479 23.84282 11816 ft 231 kts 109°
2026-04-21 05:57 39.19923 23.86226 12278 ft 233 kts 109°
2026-04-21 05:57 39.19357 23.88197 12742 ft 235 kts 109°
2026-04-21 05:57 39.18788 23.90182 13211 ft 237 kts 109°
2026-04-21 05:58 39.18215 23.92178 13691 ft 239 kts 109°
2026-04-21 05:58 39.17637 23.94189 14124 ft 238 kts 109°
2026-04-21 05:58 39.17065 23.96179 14543 ft 237 kts 109°
2026-04-21 05:58 39.16495 23.98160 14978 ft 234 kts 109°
2026-04-21 05:59 39.15937 24.00120 15409 ft 231 kts 107°
2026-04-21 05:59 39.15694 24.02130 15854 ft 226 kts 91°
2026-04-21 05:59 39.15578 24.04122 16290 ft 225 kts 92°
2026-04-21 06:00 39.15331 24.08112 17202 ft 222 kts 91°
2026-04-21 06:00 39.15210 24.10114 17676 ft 220 kts 91°
2026-04-21 06:00 39.15090 24.12075 18146 ft 219 kts 91°
2026-04-21 06:00 39.14972 24.14021 18572 ft 217 kts 91°
2026-04-21 06:01 39.14854 24.15938 18983 ft 216 kts 91°
2026-04-21 06:01 39.14737 24.17852 19401 ft 214 kts 91°
2026-04-21 06:01 39.14620 24.19750 19824 ft 212 kts 91°
2026-04-21 06:01 39.14504 24.21635 20254 ft 209 kts 91°
2026-04-21 06:02 39.14389 24.23492 20687 ft 207 kts 91°
2026-04-21 06:02 39.14275 24.25326 21129 ft 203 kts 91°
2026-04-21 06:02 39.14164 24.27126 21566 ft 200 kts 91°
2026-04-21 06:02 39.14054 24.28885 22008 ft 195 kts 91°
2026-04-21 06:03 39.13947 24.30604 22456 ft 189 kts 90°
2026-04-21 06:03 39.13843 24.32297 22716 ft 198 kts 90°
2026-04-21 06:03 39.13727 24.34151 22870 ft 214 kts 91°
2026-04-21 06:03 39.13602 24.36087 23193 ft 221 kts 91°
2026-04-21 06:04 39.13477 24.38062 23506 ft 228 kts 92°
2026-04-21 06:04 39.13344 24.40162 23778 ft 235 kts 90°
2026-04-21 06:04 39.13209 24.42284 24035 ft 242 kts 91°
2026-04-21 06:04 39.13071 24.44442 24289 ft 248 kts 91°
2026-04-21 06:05 39.12927 24.46678 24549 ft 253 kts 91°
2026-04-21 06:05 39.12780 24.48956 24805 ft 258 kts 91°
2026-04-21 06:05 39.12631 24.51281 25061 ft 262 kts 91°
2026-04-21 06:05 39.12478 24.53636 25316 ft 265 kts 91°
2026-04-21 06:06 39.12324 24.56019 25572 ft 268 kts 91°
2026-04-21 06:06 39.12168 24.58416 25827 ft 270 kts 91°
2026-04-21 06:06 39.12010 24.60837 26082 ft 272 kts 91°
2026-04-21 06:06 39.11850 24.63278 26339 ft 274 kts 91°
2026-04-21 06:07 39.11690 24.65716 26594 ft 275 kts 91°
2026-04-21 06:07 39.11528 24.68180 26849 ft 275 kts 91°
2026-04-21 06:07 39.11368 24.70606 27108 ft 276 kts 91°
2026-04-21 06:07 39.11203 24.73099 27372 ft 276 kts 91°
2026-04-21 06:08 39.11092 24.75531 27625 ft 275 kts 89°
2026-04-21 06:08 39.10955 24.77982 27888 ft 275 kts 91°
2026-04-21 06:08 39.10528 24.80389 28150 ft 278 kts 110°
2026-04-21 06:08 39.09595 24.82554 28421 ft 277 kts 129°
2026-04-21 06:09 39.08287 24.84365 28705 ft 275 kts 137°
2026-04-21 06:09 39.06937 24.86106 28981 ft 274 kts 137°
2026-04-21 06:09 39.05575 24.87873 29026 ft 284 kts 137°
2026-04-21 06:09 39.04165 24.89705 29037 ft 292 kts 137°
2026-04-21 06:10 39.02718 24.91581 29035 ft 298 kts 137°
2026-04-21 06:10 38.99765 24.95408 29025 ft 303 kts 137°
2026-04-21 06:11 38.96770 24.99285 29034 ft 307 kts 137°
2026-04-21 06:11 38.93744 25.03195 29028 ft 310 kts 136°
2026-04-21 06:12 38.90719 25.07100 29035 ft 311 kts 136°
2026-04-21 06:12 38.87667 25.11035 29036 ft 312 kts 136°
2026-04-21 06:13 38.84603 25.14980 29037 ft 312 kts 136°
2026-04-21 06:13 38.81528 25.18934 29032 ft 312 kts 137°
2026-04-21 06:14 38.78453 25.22883 29035 ft 313 kts 137°
2026-04-21 06:14 38.75401 25.26798 29037 ft 313 kts 137°
2026-04-21 06:15 38.72323 25.30740 29038 ft 313 kts 137°
2026-04-21 06:15 38.69246 25.34677 29030 ft 313 kts 136°
2026-04-21 06:16 38.66157 25.38623 29029 ft 313 kts 136°
2026-04-21 06:16 38.63070 25.42562 29030 ft 313 kts 136°
2026-04-21 06:17 38.59982 25.46497 29033 ft 314 kts 136°
2026-04-21 06:17 38.56911 25.50406 29034 ft 314 kts 137°
2026-04-21 06:18 38.53814 25.54342 29037 ft 314 kts 137°
2026-04-21 06:18 38.50712 25.58280 29040 ft 314 kts 137°
2026-04-21 06:19 38.47614 25.62207 29041 ft 314 kts 137°
2026-04-21 06:19 38.44518 25.66128 29044 ft 314 kts 136°
2026-04-21 06:20 38.41413 25.70054 29045 ft 314 kts 136°
2026-04-21 06:20 38.38307 25.73976 29030 ft 314 kts 136°
2026-04-21 06:21 38.35199 25.77907 29031 ft 314 kts 136°
2026-04-21 06:21 38.32095 25.81838 29030 ft 314 kts 136°
2026-04-21 06:22 38.28994 25.85755 29029 ft 314 kts 136°
2026-04-21 06:22 38.25885 25.89679 29030 ft 315 kts 136°
2026-04-21 06:23 38.22661 25.93359 29036 ft 313 kts 141°
2026-04-21 06:23 38.19379 25.97016 29042 ft 314 kts 140°
2026-04-21 06:24 38.16085 26.00666 29042 ft 314 kts 140°
2026-04-21 06:24 38.12785 26.04322 29043 ft 315 kts 140°
2026-04-21 06:25 38.09482 26.07975 29030 ft 315 kts 140°
2026-04-21 06:25 38.06736 26.11010 29029 ft 315 kts 140°
2026-04-21 06:26 38.03425 26.14663 29039 ft 315 kts 140°
2026-04-21 06:26 38.00114 26.18311 29043 ft 315 kts 140°
2026-04-21 06:27 37.96801 26.21957 29041 ft 315 kts 140°
2026-04-21 06:27 37.93485 26.25602 29042 ft 315 kts 140°
2026-04-21 06:28 37.90172 26.29239 29047 ft 316 kts 140°
2026-04-21 06:28 37.86855 26.32877 29048 ft 316 kts 140°
2026-04-21 06:29 37.83521 26.36518 29049 ft 316 kts 140°
2026-04-21 06:29 37.80196 26.40143 29050 ft 316 kts 141°
2026-04-21 06:30 37.76865 26.43772 29046 ft 316 kts 141°
2026-04-21 06:30 37.73533 26.47396 29046 ft 316 kts 141°
2026-04-21 06:31 37.70222 26.50994 29053 ft 316 kts 141°
2026-04-21 06:31 37.66887 26.54616 29053 ft 316 kts 140°
2026-04-21 06:32 37.63555 26.58240 29072 ft 316 kts 141°
2026-04-21 06:32 37.60218 26.61862 29074 ft 316 kts 141°
2026-04-21 06:33 37.56882 26.65480 29071 ft 316 kts 141°
2026-04-21 06:33 37.53547 26.69090 29072 ft 316 kts 141°
2026-04-21 06:34 37.50210 26.72700 29073 ft 316 kts 141°
2026-04-21 06:34 37.46892 26.76284 29074 ft 316 kts 141°
2026-04-21 06:35 37.43549 26.79891 29073 ft 316 kts 141°
2026-04-21 06:35 37.40211 26.83489 29071 ft 316 kts 141°
2026-04-21 06:36 37.37028 26.87275 29072 ft 315 kts 138°
2026-04-21 06:36 37.33839 26.91071 29071 ft 315 kts 137°
2026-04-21 06:37 37.30661 26.94874 29072 ft 316 kts 138°
2026-04-21 06:37 37.27495 26.98650 29072 ft 316 kts 138°
2026-04-21 06:38 37.24310 27.02447 29072 ft 316 kts 138°
2026-04-21 06:38 37.21128 27.06234 29058 ft 316 kts 138°
2026-04-21 06:39 37.17938 27.10027 29058 ft 316 kts 138°
2026-04-21 06:39 37.14743 27.13820 29061 ft 316 kts 138°
2026-04-21 06:40 37.11549 27.17609 29061 ft 316 kts 139°
2026-04-21 06:40 37.08364 27.21381 29066 ft 315 kts 139°
2026-04-21 06:41 37.05181 27.25147 29065 ft 314 kts 139°
2026-04-21 06:41 37.02001 27.28905 29064 ft 314 kts 139°
2026-04-21 06:42 36.98842 27.32633 29061 ft 314 kts 139°
2026-04-21 06:42 36.95662 27.36382 29058 ft 314 kts 139°
2026-04-21 06:43 36.92482 27.40126 29058 ft 313 kts 139°
2026-04-21 06:43 36.89308 27.43859 29051 ft 314 kts 139°
2026-04-21 06:44 36.86125 27.47598 29059 ft 314 kts 139°
2026-04-21 06:44 36.82941 27.51333 29059 ft 313 kts 139°
2026-04-21 06:45 36.79768 27.55052 29065 ft 313 kts 139°
2026-04-21 06:45 36.76596 27.58764 29062 ft 313 kts 139°
2026-04-21 06:46 36.73424 27.62471 29052 ft 312 kts 139°
2026-04-21 06:46 36.70270 27.66154 29056 ft 312 kts 139°
2026-04-21 06:47 36.67103 27.69848 29050 ft 312 kts 139°
2026-04-21 06:47 36.63927 27.73547 29048 ft 312 kts 139°
2026-04-21 06:48 36.60751 27.77243 29040 ft 313 kts 139°
2026-04-21 06:48 36.57563 27.80947 29040 ft 314 kts 139°
2026-04-21 06:49 36.54373 27.84650 29045 ft 314 kts 139°
2026-04-21 06:49 36.51196 27.88332 29045 ft 314 kts 139°
2026-04-21 06:50 36.47982 27.92055 29047 ft 314 kts 139°
2026-04-21 06:50 36.44807 27.95726 29048 ft 314 kts 139°
2026-04-21 06:51 36.41611 27.99419 29042 ft 314 kts 139°
2026-04-21 06:51 36.38410 28.03112 29049 ft 314 kts 139°
2026-04-21 06:52 36.35210 28.06801 29052 ft 314 kts 140°
2026-04-21 06:52 36.33688 28.08727 29051 ft 314 kts 128°
2026-04-21 06:52 36.32423 28.10920 29057 ft 313 kts 126°
2026-04-21 06:53 36.29889 28.15287 29036 ft 311 kts 127°
2026-04-21 06:53 36.27378 28.19620 29037 ft 311 kts 127°
2026-04-21 06:54 36.24848 28.23977 29039 ft 311 kts 127°
2026-04-21 06:54 36.22312 28.28340 29042 ft 311 kts 127°
2026-04-21 06:55 36.19776 28.32698 29041 ft 311 kts 127°
2026-04-21 06:55 36.17239 28.37050 29048 ft 311 kts 127°
2026-04-21 06:56 36.14708 28.41387 29053 ft 311 kts 127°
2026-04-21 06:56 36.12192 28.45694 29055 ft 311 kts 127°
2026-04-21 06:57 36.09664 28.50020 29055 ft 310 kts 127°
2026-04-21 06:57 36.07134 28.54343 29066 ft 310 kts 127°
2026-04-21 06:58 36.04601 28.58666 29068 ft 310 kts 127°
2026-04-21 06:58 36.02067 28.62983 29068 ft 310 kts 127°
2026-04-21 06:59 35.99532 28.67299 29071 ft 310 kts 127°
2026-04-21 06:59 35.97001 28.71602 29072 ft 310 kts 127°
2026-04-21 07:00 35.94467 28.75903 29070 ft 310 kts 127°
2026-04-21 07:00 35.91931 28.80204 29056 ft 310 kts 127°
2026-04-21 07:01 35.89395 28.84500 29069 ft 310 kts 127°
2026-04-21 07:01 35.85599 28.90917 29069 ft 310 kts 127°
2026-04-21 07:02 35.83056 28.95211 29070 ft 310 kts 127°
2026-04-21 07:02 35.80513 28.99499 29076 ft 309 kts 127°
2026-04-21 07:03 35.77976 29.03770 29072 ft 309 kts 127°
2026-04-21 07:03 35.75433 29.08049 29072 ft 309 kts 127°
2026-04-21 07:04 35.72907 29.12292 29072 ft 309 kts 127°
2026-04-21 07:04 35.70368 29.16552 29069 ft 309 kts 127°
2026-04-21 07:05 35.67824 29.20816 29072 ft 309 kts 127°
2026-04-21 07:05 35.65278 29.25075 29072 ft 309 kts 127°
2026-04-21 07:06 35.62740 29.29319 29070 ft 308 kts 127°
2026-04-21 07:06 35.60196 29.33567 29070 ft 308 kts 127°
2026-04-21 07:07 35.57657 29.37802 29069 ft 308 kts 127°
2026-04-21 07:07 35.55111 29.42041 29069 ft 308 kts 127°
2026-04-21 07:08 35.52566 29.46275 29069 ft 308 kts 127°
2026-04-21 07:08 35.50035 29.50482 29061 ft 308 kts 127°
2026-04-21 07:09 35.47488 29.54708 29065 ft 308 kts 127°
2026-04-21 07:09 35.44937 29.58936 29066 ft 308 kts 127°
2026-04-21 07:10 35.42381 29.63168 29062 ft 308 kts 127°
2026-04-21 07:10 35.39840 29.67370 29063 ft 308 kts 127°
2026-04-21 07:11 35.37282 29.71593 29063 ft 309 kts 127°
2026-04-21 07:11 35.34721 29.75818 29063 ft 309 kts 127°
2026-04-21 07:12 35.32161 29.80036 29066 ft 309 kts 127°
2026-04-21 07:12 35.29600 29.84250 29067 ft 309 kts 126°
2026-04-21 07:13 35.27031 29.88472 29072 ft 309 kts 126°
2026-04-21 07:13 35.24465 29.92685 29073 ft 309 kts 126°
2026-04-21 07:14 35.21892 29.96904 29073 ft 309 kts 127°
2026-04-21 07:14 35.19282 30.01085 29072 ft 308 kts 129°
2026-04-21 07:15 35.16612 30.05195 29071 ft 309 kts 128°
2026-04-21 07:15 35.13953 30.09266 29072 ft 309 kts 129°
2026-04-21 07:16 35.11264 30.13372 29070 ft 310 kts 128°
2026-04-21 07:16 35.08566 30.17493 29070 ft 311 kts 128°
2026-04-21 07:17 35.05854 30.21628 29071 ft 312 kts 128°
2026-04-21 07:17 35.03139 30.25764 29073 ft 312 kts 128°
2026-04-21 07:18 35.00427 30.29891 29073 ft 312 kts 129°
2026-04-21 07:18 34.98164 30.33329 29074 ft 312 kts 129°
2026-04-21 07:19 34.95446 30.37455 29074 ft 312 kts 129°
2026-04-21 07:19 34.92281 30.42254 29078 ft 313 kts 128°
2026-04-21 07:20 34.89994 30.45718 29075 ft 313 kts 128°
2026-04-21 07:20 34.87273 30.49833 29076 ft 313 kts 129°
2026-04-21 07:21 34.84535 30.53970 29076 ft 314 kts 129°
2026-04-21 07:21 34.81791 30.58111 29079 ft 314 kts 129°
2026-04-21 07:22 34.79047 30.62248 29080 ft 314 kts 129°
2026-04-21 07:22 34.76304 30.66378 29080 ft 314 kts 129°
2026-04-21 07:23 34.73578 30.70477 29070 ft 314 kts 129°
2026-04-21 07:23 34.70819 30.74623 29022 ft 316 kts 129°
2026-04-21 07:24 34.68053 30.78772 29024 ft 316 kts 129°
2026-04-21 07:24 34.65285 30.82921 29027 ft 316 kts 129°
2026-04-21 07:25 34.62521 30.87057 29027 ft 316 kts 129°
2026-04-21 07:25 34.59854 30.91274 29025 ft 314 kts 127°
2026-04-21 07:26 34.57193 30.95497 29028 ft 315 kts 127°
2026-04-21 07:26 34.54561 30.99717 29022 ft 316 kts 127°
2026-04-21 07:27 34.51903 31.03963 29016 ft 316 kts 127°
2026-04-21 07:27 34.49243 31.08209 29021 ft 316 kts 127°
2026-04-21 07:28 34.46582 31.12451 29018 ft 316 kts 127°
2026-04-21 07:28 34.43913 31.16702 29025 ft 317 kts 127°
2026-04-21 07:29 34.41260 31.20921 29018 ft 317 kts 127°
2026-04-21 07:29 34.38591 31.25161 29028 ft 317 kts 127°
2026-04-21 07:30 34.35914 31.29410 29020 ft 317 kts 127°
2026-04-21 07:30 34.33236 31.33653 29022 ft 317 kts 127°
2026-04-21 07:31 34.30559 31.37891 29021 ft 318 kts 127°
2026-04-21 07:31 34.27872 31.42139 29022 ft 318 kts 128°
2026-04-21 07:32 34.25183 31.46387 29023 ft 318 kts 128°
2026-04-21 07:32 34.22486 31.50641 29024 ft 318 kts 128°
2026-04-21 07:33 34.19787 31.54892 29030 ft 319 kts 128°
2026-04-21 07:33 34.17093 31.59132 29030 ft 319 kts 128°
2026-04-21 07:34 34.14391 31.63378 29030 ft 319 kts 128°
2026-04-21 07:34 34.11688 31.67622 29031 ft 319 kts 128°
2026-04-21 07:35 34.08979 31.71871 29031 ft 319 kts 128°
2026-04-21 07:35 34.06274 31.76106 29028 ft 319 kts 128°
2026-04-21 07:36 34.03584 31.80315 29040 ft 319 kts 128°
2026-04-21 07:36 34.00872 31.84553 29034 ft 319 kts 128°
2026-04-21 07:37 33.98156 31.88792 29027 ft 319 kts 128°
2026-04-21 07:37 33.95438 31.93029 29030 ft 319 kts 128°
2026-04-21 07:38 33.92724 31.97254 29028 ft 319 kts 128°
2026-04-21 07:38 33.90008 32.01478 29024 ft 319 kts 128°
2026-04-21 07:39 33.87294 32.05696 29032 ft 319 kts 128°
2026-04-21 07:39 33.86119 32.07949 29037 ft 317 kts 115°
2026-04-21 07:39 33.85131 32.10318 29037 ft 317 kts 116°
2026-04-21 07:40 33.83130 32.15022 29037 ft 318 kts 116°
2026-04-21 07:40 33.81105 32.19805 29040 ft 319 kts 116°
2026-04-21 07:41 33.79085 32.24559 29040 ft 319 kts 116°
2026-04-21 07:41 33.77080 32.29277 29040 ft 319 kts 116°
2026-04-21 07:42 33.75055 32.34034 29037 ft 320 kts 116°
2026-04-21 07:42 33.73023 32.38799 29039 ft 320 kts 117°
2026-04-21 07:43 33.70991 32.43558 29038 ft 320 kts 117°
2026-04-21 07:43 33.68952 32.48329 29041 ft 321 kts 117°
2026-04-21 07:44 33.66912 32.53093 29039 ft 321 kts 117°
2026-04-21 07:44 33.64875 32.57845 29037 ft 321 kts 117°
2026-04-21 07:45 33.62845 32.62574 29039 ft 321 kts 117°
2026-04-21 07:45 33.60786 32.67364 29036 ft 321 kts 117°
2026-04-21 07:46 33.58746 32.72104 29035 ft 321 kts 117°
2026-04-21 07:46 33.56693 32.76868 29038 ft 322 kts 117°
2026-04-21 07:47 33.54635 32.81635 29045 ft 322 kts 117°
2026-04-21 07:47 33.52576 32.86399 29045 ft 322 kts 117°
2026-04-21 07:48 33.50512 32.91168 29040 ft 322 kts 118°
2026-04-21 07:48 33.48460 32.95905 29044 ft 322 kts 118°
2026-04-21 07:49 33.46393 33.00666 29041 ft 322 kts 118°
2026-04-21 07:49 33.44321 33.05434 29040 ft 322 kts 118°
2026-04-21 07:50 33.42251 33.10192 29039 ft 322 kts 118°
2026-04-21 07:50 33.40179 33.14949 29043 ft 322 kts 118°
2026-04-21 07:51 33.39142 33.17332 28921 ft 326 kts 119°
2026-04-21 07:51 33.38071 33.19777 28518 ft 332 kts 119°
2026-04-21 07:51 33.37008 33.22207 28119 ft 330 kts 119°
2026-04-21 07:51 33.35948 33.24634 27722 ft 328 kts 119°
2026-04-21 07:52 33.34908 33.27014 27313 ft 326 kts 119°
2026-04-21 07:52 33.33858 33.29413 26902 ft 325 kts 119°
2026-04-21 07:52 33.32811 33.31800 26494 ft 323 kts 118°
2026-04-21 07:52 33.31773 33.34170 26101 ft 322 kts 118°
2026-04-21 07:53 33.30732 33.36544 25704 ft 321 kts 118°
2026-04-21 07:53 33.29702 33.38892 25309 ft 320 kts 119°
2026-04-21 07:53 33.28669 33.41244 24923 ft 319 kts 119°
2026-04-21 07:53 33.27639 33.43588 24553 ft 318 kts 119°
2026-04-21 07:54 33.26613 33.45921 24178 ft 317 kts 118°
2026-04-21 07:54 33.25588 33.48251 23811 ft 315 kts 118°
2026-04-21 07:54 33.24570 33.50562 23408 ft 314 kts 118°
2026-04-21 07:54 33.23552 33.52872 22979 ft 313 kts 118°
2026-04-21 07:55 33.22538 33.55173 22549 ft 312 kts 118°
2026-04-21 07:55 33.21530 33.57458 22128 ft 311 kts 118°
2026-04-21 07:55 33.20521 33.59742 21710 ft 310 kts 118°
2026-04-21 07:55 33.19521 33.62008 21300 ft 308 kts 118°
2026-04-21 07:56 33.18521 33.64269 20895 ft 307 kts 119°
2026-04-21 07:56 33.17527 33.66517 20495 ft 306 kts 119°
2026-04-21 07:56 33.16536 33.68757 20100 ft 304 kts 119°
2026-04-21 07:56 33.15548 33.70989 19709 ft 303 kts 119°
2026-04-21 07:57 33.14580 33.73171 19328 ft 301 kts 119°
2026-04-21 07:57 33.13601 33.75379 18947 ft 300 kts 119°
2026-04-21 07:57 33.12628 33.77573 18581 ft 299 kts 119°
2026-04-21 07:57 33.11658 33.79758 18180 ft 297 kts 119°
2026-04-21 07:58 33.10677 33.81966 17749 ft 296 kts 119°
2026-04-21 07:58 33.09728 33.84101 17336 ft 296 kts 119°
2026-04-21 07:58 33.08757 33.86283 16922 ft 297 kts 118°
2026-04-21 07:58 33.07791 33.88455 16514 ft 297 kts 118°
2026-04-21 07:59 33.06821 33.90634 16111 ft 297 kts 118°
2026-04-21 07:59 33.05852 33.92808 15713 ft 296 kts 118°
2026-04-21 07:59 33.04888 33.94970 15322 ft 295 kts 118°
2026-04-21 07:59 33.03925 33.97128 14932 ft 294 kts 118°
2026-04-21 08:00 33.02966 33.99279 14545 ft 293 kts 117°
2026-04-21 08:00 33.02010 34.01417 14169 ft 293 kts 117°
2026-04-21 08:00 33.01053 34.03560 13789 ft 293 kts 117°
2026-04-21 08:00 33.00094 34.05704 13373 ft 294 kts 117°
2026-04-21 08:01 32.99132 34.07855 12959 ft 294 kts 117°
2026-04-21 08:01 32.98182 34.09977 12556 ft 293 kts 117°
2026-04-21 08:01 32.97222 34.12118 12148 ft 292 kts 117°
2026-04-21 08:02 32.95318 34.16365 11353 ft 289 kts 117°
2026-04-21 08:02 32.94376 34.18465 10959 ft 287 kts 118°
2026-04-21 08:02 32.93436 34.20556 10576 ft 285 kts 118°
2026-04-21 08:02 32.92502 34.22636 10190 ft 283 kts 118°
2026-04-21 08:03 32.91569 34.24712 9802 ft 286 kts 118°
2026-04-21 08:03 32.90628 34.26799 9389 ft 287 kts 118°
2026-04-21 08:03 32.89685 34.28893 8976 ft 285 kts 118°
2026-04-21 08:03 32.88855 34.30973 8569 ft 280 kts 105°
2026-04-21 08:04 32.88543 34.33240 8214 ft 275 kts 95°
2026-04-21 08:04 32.88346 34.35486 7963 ft 271 kts 94°
2026-04-21 08:04 32.88192 34.37714 7755 ft 270 kts 94°
2026-04-21 08:04 32.88058 34.39933 7582 ft 270 kts 93°
2026-04-21 08:05 32.87928 34.42169 7412 ft 271 kts 93°
2026-04-21 08:05 32.87803 34.44404 7243 ft 271 kts 93°
2026-04-21 08:05 32.87676 34.46645 7073 ft 271 kts 93°
2026-04-21 08:05 32.87549 34.48875 6909 ft 271 kts 93°
2026-04-21 08:06 32.87433 34.51107 6741 ft 270 kts 93°
2026-04-21 08:06 32.87315 34.53341 6575 ft 270 kts 93°
2026-04-21 08:06 32.87203 34.55562 6405 ft 270 kts 93°
2026-04-21 08:06 32.87093 34.57795 6226 ft 269 kts 93°
2026-04-21 08:07 32.86987 34.60014 6047 ft 268 kts 93°
2026-04-21 08:07 32.86887 34.62219 5866 ft 267 kts 93°
2026-04-21 08:07 32.86806 34.64421 5686 ft 266 kts 92°
2026-04-21 08:07 32.86743 34.66617 5508 ft 265 kts 92°
2026-04-21 08:08 32.86687 34.68799 5329 ft 264 kts 92°
2026-04-21 08:08 32.86636 34.70984 5150 ft 263 kts 92°
2026-04-21 08:08 32.86594 34.73132 4977 ft 263 kts 92°
2026-04-21 08:08 32.86553 34.75302 4799 ft 261 kts 92°
2026-04-21 08:09 32.86508 34.77460 4622 ft 259 kts 92°
2026-04-21 08:09 32.86464 34.79601 4440 ft 259 kts 92°
2026-04-21 08:09 32.86428 34.81754 4256 ft 260 kts 92°
2026-04-21 08:09 32.86396 34.83891 4077 ft 259 kts 92°
2026-04-21 08:10 32.86364 34.86030 3900 ft 258 kts 92°
2026-04-21 08:10 32.86337 34.88161 3716 ft 256 kts 90°
2026-04-21 08:10 32.86357 34.90271 3462 ft 256 kts 90°
2026-04-21 08:10 32.86276 34.91661 3184 ft 254 kts 99°
2026-04-21 08:11 32.86019 34.94356 2678 ft 236 kts 98°
2026-04-21 08:11 32.85890 34.95643 2300 ft 234 kts 97°
2026-04-21 08:11 32.85743 34.97499 2040 ft 216 kts 95°
2026-04-21 08:11 32.85672 34.99234 1668 ft 206 kts 94°
2026-04-21 08:12 32.85628 35.00826 1597 ft 176 kts 97°
2026-04-21 08:12 32.85281 35.02091 1325 ft 154 kts 133°
2026-04-21 08:12 32.84524 35.02762 897 ft 123 kts 154°
2026-04-21 08:12 32.83808 35.03179 586 ft 109 kts 166°
2026-04-21 08:13 32.83092 35.03458 402 ft 111 kts 160°
2026-04-21 08:13 32.82369 35.03789 219 ft 108 kts 166°
2026-04-21 08:13 32.81709 35.04072 58 ft 95 kts 163°
2026-04-21 08:13 32.81144 35.04317 23 ft 75 kts 162°
2026-04-21 08:14 32.80773 35.04477 21 ft 20 kts 158°
2026-04-21 08:14 32.80733 35.04501 25 ft 7 kts 340°
2026-04-21 08:14 32.80847 35.04450 22 ft 31 kts 339°
2026-04-21 08:14 32.80968 35.04397 23 ft 19 kts 339°
2026-04-21 08:15 32.81135 35.04324 24 ft 20 kts 338°
2026-04-21 08:15 32.81150 35.04214 21 ft 20 kts 248°
2026-04-21 08:15 32.81168 35.04157 20 ft 5 kts 110°
2026-04-21 08:15 32.81162 35.04168 21 ft 0 kts 143°